User: anonymous   Login
Location: ?
(35.4064°N, 139.3593°E)
Time: 20:23:17
(UTC+00:00)
Language:

SPOT 5 - Orbit

View from above orbital plane
View from above orbital plane
View from above satellite
View from above satellite

Ground track
Ground track

The orbit data is extracted from the following two-line orbital elements,

1 27421U 02021A   24165.61531167  .00000754  00000-0  17196-3 0  9992
2 27421  98.0883 222.1286 0133178  33.9884 326.9755 14.53313975156230
Epoch (UTC): 13 June 2024 14:46:02
Eccentricity: 0.0133178
inclination: 98.0883°
perigee height: 620 km
apogee height: 809 km
right ascension of ascending node: 222.1286°
argument of perigee: 33.9884°
revolutions per day: 14.53313975
mean anomaly at epoch: 326.9755°
orbit number at epoch: 15623

The dashed part of the orbit path shows where the satellite is in the earth's shadow,  

DLR